Weather History for EGLL - December, 2013

Change the Weather History Date:

Monday, December 30, 2013

  Actual Average Record
Temperature  
Mean Temperature 46 °F -  
Max Temperature 50 °F 45 °F 57 °F (2006)
Min Temperature 41 °F 35 °F 24 °F (2000)
Degree Days  
Heating Degree Days 20    
Moisture  
Dew Point 43 °F    
Average Humidity 82    
Maximum Humidity 93    
Minimum Humidity 64    
Precipitation  
Precipitation 0.20 in - - ()
Sea Level Pressure  
Sea Level Pressure 29.84 in    
Wind  
Wind Speed 16 mph ()    
Max Wind Speed 30 mph    
Max Gust Speed 43 mph    
Visibility 7.9 miles    
Events Rain    
Averages and records for this station are not official NWS values.
T = Trace of Precipitation, MM = Missing Value Source: Averaged Metar Reports

Daily Weather History Graph

Daily Weather History Graph

Search for Another Location

Airport or City:

Trip Planner

Search our weather history database for the weather conditions in past years. The results will help you decide how hot, cold, wet, or windy it might be!

Date:

Astronomy

Dec. 30, 2013 Rise Set
Actual Time 8:07 AM GMT 4:01 PM GMT
Civil Twilight 7:27 AM GMT 4:41 PM GMT
Nautical Twilight 6:44 AM GMT 5:24 PM GMT
Astronomical Twilight 6:03 AM GMT 6:05 PM GMT
Moon 5:34 AM GMT (12/30) 2:26 PM GMT (12/30)
Length of Visible Light 9h 14m
Length of Day
7h 54m
Waning Crescent, 6% of the Moon is Illuminated
Dec 30
Waning Crescent
Jan 1
New
Jan 8
First Quarter
Jan 16
Full
Jan 24
Last Quarter

Hourly Weather History & Observations

Time (GMT) Temp. Windchill Dew Point Humidity Pressure Visibility Wind Dir Wind Speed Gust Speed Precip Events Conditions
12:00 AM 47 °F - 41 °F 73% 30.02 in 17 mi South 15.0 mph - -   Scattered Clouds
12:20 AM 46.4 °F 39.8 °F 41.0 °F 81% 30.01 in 6.2 mi South 16.1 mph - N/A   Partly Cloudy
12:50 AM 46.4 °F 39.8 °F 41.0 °F 81% 29.98 in 6.2 mi South 16.1 mph - N/A   Scattered Clouds
1:00 AM 47 °F - 42 °F 75% 29.99 in 16 mi South 15.0 mph - -   Scattered Clouds
1:20 AM 48.2 °F - 42.8 °F 82% 29.98 in 6.2 mi South 17.3 mph - N/A   Partly Cloudy
1:50 AM 48.2 °F - 42.8 °F 82% 29.95 in 6.2 mi South 18.4 mph - N/A   Overcast
2:00 AM 48 °F - 43 °F 75% 29.97 in 14 mi South 16.1 mph - - Rain Rain
2:20 AM 48.2 °F - 42.8 °F 82% 29.95 in 6.2 mi South 18.4 mph - N/A   Mostly Cloudy
2:50 AM 48.2 °F - 42.8 °F 82% 29.92 in 6.2 mi South 18.4 mph - N/A   Mostly Cloudy
3:00 AM 48 °F - 44 °F 79% 29.94 in 11 mi South 17.3 mph - - Rain Light Rain Showers
3:20 AM 48.2 °F - 44.6 °F 87% 29.92 in 6.2 mi South 17.3 mph - N/A   Light Drizzle
3:50 AM 48.2 °F - 44.6 °F 87% 29.89 in 6.2 mi South 17.3 mph - N/A   Mostly Cloudy
4:00 AM 48 °F - 44 °F 82% 29.91 in 13 mi South 17.3 mph - - Rain Rain
4:20 AM 48.2 °F - 44.6 °F 87% 29.89 in 6.2 mi South 20.7 mph - N/A   Light Drizzle
4:50 AM 48.2 °F - 44.6 °F 87% 29.89 in 6.2 mi South 18.4 mph - N/A   Mostly Cloudy
5:00 AM 48 °F - 45 °F 84% 29.88 in 12 mi South 17.3 mph - -   Overcast
5:20 AM 50.0 °F - 46.4 °F 87% 29.86 in 5.0 mi South 23.0 mph - N/A   Light Drizzle
5:50 AM 50.0 °F - 46.4 °F 87% 29.83 in 6.2 mi SSW 19.6 mph - N/A   Scattered Clouds
6:00 AM 49 °F - 46 °F 84% 29.85 in 14 mi South 18.4 mph - -  
6:20 AM 50.0 °F - 46.4 °F 87% 29.83 in 6.2 mi SSW 19.6 mph - N/A   Mostly Cloudy
6:50 AM 51.8 °F - 44.6 °F 76% 29.80 in 6.2 mi SSW 23.0 mph 35.7 mph N/A   Mostly Cloudy
7:00 AM 51 °F - 45 °F 74% 29.82 in 14 mi South 23.0 mph - -   Overcast
7:20 AM 50.0 °F - 46.4 °F 87% 29.80 in 6.2 mi South 23.0 mph 35.7 mph N/A Rain Light Rain
7:50 AM 50.0 °F - 46.4 °F 87% 29.80 in 6.2 mi South 21.9 mph - N/A Rain Light Rain
8:00 AM 50 °F - 46 °F 81% 29.80 in 9 mi South 21.9 mph - - Rain Rain
8:20 AM 50.0 °F - 46.4 °F 87% 29.77 in 6.2 mi South 23.0 mph - N/A Rain Light Rain
8:50 AM 50.0 °F - 46.4 °F 87% 29.77 in 6.2 mi South 24.2 mph 35.7 mph N/A Rain Light Rain
9:00 AM 50 °F - 46 °F 81% 29.77 in 12 mi South 21.9 mph - - Rain Light Rain Showers
9:20 AM 50.0 °F - 46.4 °F 87% 29.74 in 6.2 mi South 24.2 mph 39.1 mph N/A Rain Light Rain
9:50 AM 50.0 °F - 46.4 °F 87% 29.74 in 5.6 mi South 27.6 mph - N/A Rain Light Rain
10:00 AM 50 °F - 47 °F 84% 29.75 in 6 mi South 21.9 mph - - Rain Light Rain
10:20 AM 50.0 °F - 46.4 °F 87% 29.71 in 5.0 mi South 25.3 mph - N/A Rain Light Rain
10:50 AM 50.0 °F - 46.4 °F 87% 29.68 in 4.3 mi South 26.5 mph 42.6 mph N/A Rain Light Rain
11:00 AM 50 °F - 47 °F 84% 29.71 in 3 mi South 25.3 mph - - Rain Light Rain
11:20 AM 50.0 °F - 46.4 °F 87% 29.68 in 4.3 mi South 29.9 mph 42.6 mph N/A Rain Light Rain
11:50 AM 50.0 °F - 46.4 °F 87% 29.68 in 4.3 mi South 27.6 mph 40.3 mph N/A Rain Light Rain
12:00 PM 50 °F - 47 °F 85% 29.69 in 6 mi South 26.5 mph - - Rain Rain
12:20 PM 50.0 °F - 46.4 °F 87% 29.68 in 5.0 mi SSW 24.2 mph - N/A Rain Light Rain
12:50 PM 50.0 °F - 46.4 °F 87% 29.68 in 6.2 mi SW 20.7 mph - N/A Rain Light Rain
1:00 PM 51 °F - 47 °F 82% 29.70 in 14 mi SSW 25.3 mph - - Rain Light Rain Showers
1:20 PM 50.0 °F - 44.6 °F 82% 29.71 in 6.2 mi WSW 23.0 mph - N/A   Scattered Clouds
1:50 PM 50.0 °F - 42.8 °F 76% 29.74 in 6.2 mi WSW 24.2 mph 39.1 mph N/A   Scattered Clouds
2:00 PM 49 °F - 41 °F 66% 29.75 in 28 mi WSW 29.9 mph - - Rain Rain
2:20 PM 50.0 °F - 41.0 °F 71% 29.77 in 6.2 mi WSW 18.4 mph - N/A   Scattered Clouds
2:50 PM 50.0 °F - 41.0 °F 71% 29.80 in 6.2 mi WSW 18.4 mph 31.1 mph N/A   Scattered Clouds
3:00 PM 49 °F - 40 °F 64% 29.80 in 25 mi WSW 19.6 mph - -  
3:20 PM 48.2 °F - 41.0 °F 76% 29.80 in 6.2 mi WSW 15.0 mph - N/A   Scattered Clouds
3:50 PM 48.2 °F - 41.0 °F 76% 29.83 in 6.2 mi WSW 12.7 mph - N/A   Partly Cloudy
4:00 PM 47 °F - 41 °F 72% 29.83 in 25 mi SW 11.5 mph - -  
4:20 PM 48.2 °F - 41.0 °F 76% 29.83 in 6.2 mi WSW 12.7 mph - N/A   Partly Cloudy
4:50 PM 46.4 °F 41.1 °F 39.2 °F 76% 29.86 in 6.2 mi SW 11.5 mph - N/A   Partly Cloudy
5:00 PM 47 °F - 40 °F 68% 29.87 in 22 mi SW 10.4 mph - -  
5:20 PM 46.4 °F 41.5 °F 39.2 °F 76% 29.86 in 6.2 mi SSW 10.4 mph - N/A   Partly Cloudy
5:50 PM 44.6 °F 38.8 °F 39.2 °F 81% 29.86 in - SSW 11.5 mph - N/A   Clear
6:00 PM 46 °F - 40 °F 72% 29.87 in 17 mi SSW 12.7 mph - -  
6:20 PM 44.6 °F 39.2 °F 41.0 °F 87% 29.86 in - SSW 10.4 mph - N/A   Clear
6:50 PM 44.6 °F 39.2 °F 41.0 °F 87% 29.89 in - SSW 10.4 mph - N/A   Clear
7:00 PM 46 °F - 41 °F 75% 29.89 in 14 mi SSW 11.5 mph - -  
7:20 PM 44.6 °F 39.2 °F 41.0 °F 87% 29.89 in - SSW 10.4 mph - N/A   Clear
7:50 PM 44.6 °F 39.7 °F 41.0 °F 87% 29.89 in - SSW 9.2 mph - N/A   Clear
8:00 PM 45 °F - 41 °F 79% 29.90 in 11 mi SSW 10.4 mph - -  
8:20 PM 44.6 °F 40.2 °F 41.0 °F 87% 29.89 in - SSW 8.1 mph - N/A   Clear
8:50 PM 42.8 °F 38.0 °F 39.2 °F 87% 29.89 in - South 8.1 mph - N/A   Clear
9:00 PM 44 °F - 41 °F 83% 29.90 in 11 mi South 8.1 mph - -  
9:20 PM 42.8 °F 38.6 °F 39.2 °F 87% 29.89 in - South 6.9 mph - N/A   Clear
9:50 PM 42.8 °F 38.6 °F 39.2 °F 87% 29.89 in 6.2 mi SSW 6.9 mph - N/A   Partly Cloudy
10:00 PM 44 °F - 40 °F 83% 29.90 in 11 mi South 8.1 mph - -  
10:20 PM 41.0 °F 36.4 °F 39.2 °F 93% 29.89 in 6.2 mi South 6.9 mph - N/A   Partly Cloudy
10:50 PM 41.0 °F 36.4 °F 39.2 °F 93% 29.89 in 6.2 mi SSE 6.9 mph - N/A   Partly Cloudy
11:00 PM 43 °F - 40 °F 84% 29.89 in 9 mi SSE 6.9 mph - -   Scattered Clouds
11:20 PM 42.8 °F 38.6 °F 39.2 °F 87% 29.89 in 6.2 mi South 6.9 mph - N/A   Partly Cloudy
11:50 PM 42.8 °F 38.6 °F 41.0 °F 93% 29.86 in 6.2 mi South 6.9 mph - N/A   Partly Cloudy